Other Public Products
Issued by NWS Grand Forks, ND

Home | Current Version | Previous Version | Text Only | Print | Product List | Glossary Off
Versions: 1 2 3 4 5 6 7 8 9 10 11 12 13 14 15 16 17 18 19 20 21 22 23 24 25 26 27 28 29 30 31 32 33 34 35 36 37 38 39 40 41 42 43 44 45 46 47 48 49 50

000
FPUS83 KFGF 280931
OPUFGF
PRAIRIE TO PINES WEATHER ROUNDUP
NATIONAL WEATHER SERVICE EASTERN NORTH DAKOTA/GRAND FORKS ND
400 AM CDT THU MAY 28 2015

 **SATELLITE DATA USED TO AUGMENT SKY COVER AT AUTOMATED STATIONS**
 *****  WEATHER ACROSS EASTERN NORTH DAKOTA  *****

CITY           SKY/WX    TMP DP  RH WIND       PRES   REMARKS
GRAND FORKS    CLOUDY    59  53  80 W16       29.95S
GRAND FORKS AF LGT RAIN  57  55  94 W3        29.98R
GRAND CITY NWS   N/A     55 N/A N/A W6          N/A
BUXTON           N/A     62  59  90 NW5         N/A
DEVILS LAKE    CLOUDY    57  52  82 SE7       29.94S
FARGO          LGT RAIN  65  56  72 SW5       29.96R
WAHPETON ARPT  CLOUDY    64  54  68 SW5       29.96S
$$

 *****  WEATHER ACROSS CENTRAL AND WESTERN NORTH DAKOTA  *****

CITY           SKY/WX    TMP DP  RH WIND       PRES   REMARKS
JAMESTOWN      LGT RAIN  60  56  86 SE7       29.92F
BISMARCK       MOCLDY    58  56  93 S7        29.90S
MINOT          LGT RAIN  58  56  93 E7        29.89F FOG
MINOT AFB      LGT RAIN  57  57 100 E8        29.88F
GARRISON         N/A     60  57  89 E5        29.88F
WILLISTON      MOCLDY    54  52  93 CALM      29.88S
DICKINSON      FOG       50  49  96 S5        29.88F VSB 1/2
HETTINGER      FOG       47  46  97 CALM      29.91S VSB 1/2
$$

 *****  OTHER OBSERVATIONS NORTHEAST NORTH DAKOTA  *****

CITY           SKY/WX    TMP DP  RH WIND       PRES   REMARKS
WALHALLA       FAIR      54  54 100 MISG      29.97S
LANGDON        DRIZZLE   54  50  87 E10       29.97S
CAVALIER       LGT RAIN  55  48  76 CALM      29.98R
GRAFTON        DRIZZLE   55  52  88 N7G15     29.96R
CANDO          CLOUDY    54  50  87 E8        29.95F
FORT TOTTEN      N/A     59  56  91 SE6       29.95S
ROLLA          LGT RAIN  55  55 100 SE10      29.96F
RUGBY          NOT AVBL
 ***** THE ABOVE OBSERVATIONS ARE NON NWS ARE NOT QUALITY
        CONTROLLED AND MAY MIS-REPORT RAIN FOR SNOW...
$$

 *****  OTHER OBSERVATIONS SOUTHEAST NORTH DAKOTA *****

CITY           SKY/WX    TMP DP  RH WIND       PRES   REMARKS
COOPERSTOWN    NOT AVBL
VALLEY CITY    LGT RAIN  59  59 100 CALM      29.95F
OAKES          LGT RAIN  59  59 100 E14       29.94S
GWINNER        NOT AVBL
BUFFALO        NOT AVBL
WYNDMERE         N/A     64  57  77 NW5         N/A
 ***** THE ABOVE OBSERVATIONS ARE NON NWS ARE NOT QUALITY
       CONTROLLED AND MAY MIS-REPORT RAIN FOR SNOW...
$$

  *****  WEATHER ACROSS NORTHERN MINNESOTA  *****

CITY           SKY/WX    TMP DP  RH WIND       PRES   REMARKS
FLAG ISLAND    PTCLDY    57  48  72 SE5       29.99F
WARROAD        PTCLDY    55  52  88 E7        29.99F
ROSEAU         CLOUDY    55  48  76 E6        29.97F
HALLOCK        CLOUDY    57  50  77 NE6       29.94F
THF RVR FALLS  CLOUDY    63  46  55 E8        29.95F
HALSTAD          N/A     62  57  84 W14         N/A
FOSSTON        CLOUDY    61  50  67 SE8       29.96F
BAUDETTE       PTCLDY    52  46  80 E8        30.00F
WASKISH        PTCLDY    52  46  82 CALM      30.00F
CROOKSTON      CLOUDY    61  54  77 NE3       29.94S
$$
  *****  WEATHER ACROSS CENTRAL AND WEST MINNESOTA  *****

CITY           SKY/WX    TMP DP  RH WIND       PRES   REMARKS
BEMIDJI        PTCLDY    51  49  93 E5        29.99F
PARK RAPIDS    CLOUDY    59  51  75 SE5       29.99F
WADENA         CLOUDY    61  54  77 SE3       29.98F
DETROIT LAKES  CLOUDY    63  54  72 SE7       29.98S
MOORHEAD       LGT RAIN  64  55  72 SW7       29.96R
FERGUS FALLS   LGT RAIN  66  55  68 SE8       29.95F
ELBOW LAKE     FAIR      66  52  60 SE12      29.96F
MORRIS MN      MOCLDY    64  54  68 SE9       29.96S
STAPLES        MOCLDY    57  52  82 SE3       29.99F
WHEATON        CLOUDY    63  54  72 SE8       29.96S
$$
  *****  WEATHER ELSEWHERE ACROSS MINNESOTA  *****

CITY           SKY/WX    TMP DP  RH WIND       PRES   REMARKS
DULUTH         CLEAR     53  42  66 E12       30.08F
INTRNTL FALLS  CLEAR     50  45  83 E6        30.03S
ELY            NOT AVBL
CLOQUET        CLEAR     52  43  71 E9        30.08R
BRAINERD       PTCLDY    55  52  89 CALM      30.02S
HIBBING        CLEAR     46  44  93 CALM      30.06S FOG
ALEXANDRIA     CLOUDY    67  50  54 SE9       30.00F
SAINT CLOUD    CLEAR     53  52  96 E3        30.01S
MINNEAPOLIS    PTCLDY    63  55  75 SE3       30.03S
$$

  *****  WEATHER ACROSS SOUTH DAKOTA  *****

CITY           SKY/WX    TMP DP  RH WIND       PRES   REMARKS
SIOUX FALLS    MOCLDY    65  50  58 S8        30.02S
BROOKINGS      CLOUDY    63  52  67 SE7       30.02S
WATERTOWN      CLOUDY    64  53  67 S6        29.99S
HURON            N/A    N/A N/A N/A MISG      29.95F
SISSETON         N/A     65  55  70 CALM      29.94F
ABERDEEN       TSTM      61  58  90 W10       29.95R
MITCHELL       CLOUDY    63  52  67 SE9       29.98S
PIERRE         CLEAR     58  55  90 S9        29.91F
MOBRIDGE       CLEAR     60  59  96 SE8       29.87S
RAPID CITY     CLOUDY    55  52  89 S3        29.92F
$$

  *****  SOME WEATHER IN NEARBY STATES *****

CITY           SKY/WX    TMP DP  RH WIND       PRES   REMARKS
GLASGOW MT     CLEAR     53  51  93 E3        29.86S
GREAT FALLS MT CLOUDY    51  48  89 SW8       29.99S
CHEYENNE WY    PTCLDY    51  49  92 W7        30.09F
SCOTTSBLUFF NE MOCLDY    56  52  86 E7        30.01F
OMAHA NE       CLOUDY    64  54  69 SE3       30.04F
DES MOINES IA  PTCLDY    64  56  75 S8        30.09F
DAVENPORT IA   CLEAR     60  55  83 S7        30.16R
CHICAGO IL     PTCLDY    57  54  89 CALM      30.16S
EAU CLAIRE WI  CLEAR     56  53  90 CALM      30.06S
LA CROSSE WI   CLEAR     62  59  90 SE6       30.08S
$$

  *****  SOME NATIONAL WEATHER *****

CITY           SKY/WX    TMP DP  RH WIND       PRES   REMARKS
LA GUARDIA NY  MOCLDY    68  63  83 S7        30.13R
RALEIGH NC     MOCLDY    69  67  93 SW5       30.19S
ATLANTA GA     CLOUDY    67  64  90 SE6       30.16S
NEW ORLEANS LA PTCLDY    70  67  90 CALM      30.07S
OKLAHOMA CITY  CLOUDY    69  65  86 CALM      30.03F
ALBUQUERQUE NM MOCLDY    58  31  35 CALM      30.08R
SALT LAKE CITY PTCLDY    53  50  89 SE5       30.10F
LOS ANGELES CA PTCLDY    58  55  90 W7        29.97F
BOISE ID       CLEAR     56  44  64 S9        30.03S
SEATTLE WA     CLEAR     59  52  77 CALM      30.05S
$$

*** WEATHER ACROSS MANITOBA...SASKATCHEWAN AND ONTARIO ***
                ***ONTARIO***

CITY           SKY/WX    TMP DP  RH WIND       PRES   REMARKS
GERALDTON      PTCLDY    36  34  93 E5        30.20S
THUNDER BAY    PTCLDY    41  39  93 E6        30.18S
SIOUX LOOKOUT  MOCLDY    46  39  76 SE6       30.10F
TORONTO        MOCLDY    59  52  77 NW21G31   30.07R
BIG TROUT LK   MOCLDY    34  30  86 NE5       30.21F
PICKLE LAKE    NOT AVBL
DRYDEN         PTCLDY    48  41  76 E6        30.07F
KENORA         MOCLDY    50  43  76 E8        30.03F
$$
                *** MANITOBA***

CITY           SKY/WX    TMP DP  RH WIND       PRES   REMARKS
BRANDON        LGT RAIN  50  45  81 E7        29.98F
DAUPHIN        MOCLDY    46  39  76 CALM      29.98F
ISLAND LAKE    PTCLDY    41  32  70 CALM      30.11F
PILOT MOUND      N/A     50  46  87 E6          N/A
THE PAS        CLOUDY    43  37  81 SE10      29.93F
THOMPSON       CLOUDY    45  30  57 E5        30.03F
WINNIPEG       CLOUDY    52  43  71 NE3       29.99F
LYNN LAKE      LGT RAIN  34  34 100 NE16      29.98S WCI  23
CHURCHILL      CLOUDY    28  25  86 NE7       30.33R WCI  21
GILLAM         MOCLDY    30  21  69 SE5       30.23R
$$
                ***SASKATCHEWAN***

CITY           SKY/WX    TMP DP  RH WIND       PRES   REMARKS
ESTEVAN        MOCLDY    55  54  94 E10       29.89F
KINDERSLEY     CLOUDY    55  48  76 NW8       29.95R
LLOYDMINSTER   CLOUDY    48  45  87 NE16G24   30.01R
PRINCE ALBERT  LGT RAIN  50  46  87 NW5       29.91R
REGINA         CLOUDY    55  48  76 E5        29.92F
YORKTON        PTCLDY    50  39  66 SE8       29.94F



USA.gov is the U.S. government's official web portal to all federal, state and local government web resources and services.